Location: Unspecified
(0.0000°N, 0.0000°E)
Time: 07:38:52
(UTC+00:00)

A-11 Canister half - Pass Details

Date: 21 December 2018
Orbit: 1516 x 1684 km, 47.2° (Epoch: 15 June)

Event Time Altitude Azimuth Distance (km) Brightness Sun altitude
Rises 21:48:19 0° 309° (NW) 4,920 11.8 -50.7°
Reaches altitude 10° 21:51:35 10° 304° (NW) 3,938 11.2 -51.3°
Enters shadow 21:52:09 12° 303° (WNW) 3,771 11.1 -51.4°
Exits shadow 22:12:06 - 154° (SSE) 4,213 11.4 -55.2°
Sets 22:14:17 0° 151° (SSE) 4,867 11.7 -55.5°
